Flag for U.S.A. Weather past 2 weeks in Victorville, California, U.S.A.

Now
77 °F

Sunny.


Feels Like: 76 °F
Forecast: 47 / 81 °F
Wind: 5 mph from West

Location: George Air Force Base / Victorvi

Current Time: Apr 19, 2015 at 11:50:33 AM

Latest Report: Apr 19, 2015 at 11:15 AM


Visibility: 10 mi

Pressure: 29.98 "Hg

Humidity: 12%

Dew point: 21 °F

Location of VictorvilleLocation

Historic Weather in Victorville — Graph

°F

Victorville temperature yesterday

Maximum temperature yesterday: 82 °F (at 3:15 PM)
Minimum temperature yesterday: 48 °F (at 4:15 AM)
Average temperature yesterday: 65 °F

Past Weeks' High & Low Weather Summary

 TemperatureHumidityPressure
High82 °F (Apr 13, 12:55 PM)87% (Apr 6, 6:35 AM)30.16 "Hg (Apr 6, 6:35 AM)
Low32 °F (Apr 7, 6:55 AM)7% (Apr 18, 2:15 PM)29.78 "Hg (Apr 5, 4:15 PM)
Average58 °F30%29.99 "Hg
* Reported Apr 4 10:15 AM — Apr 19 10:35 AM, Victorville, Weather by CustomWeather, © 2015

Note: Actual official high and low records may vary slightly from our data, if they occured in-between our weather recording intervals... More about our weather records

Advertising

Victorville weather history for previous 24 hours

 ConditionsComfort  
Time TempWeatherWind HumidityBarometerVisibility
10:35 AM
Sun, Apr 19
73 °FSunny.3 mph14%29.98 "Hg10 mi
10:15 AM73 °FSunny.No wind14%29.99 "Hg10 mi
9:55 AM72 °FSunny.No wind15%29.99 "Hg10 mi
9:35 AM70 °FSunny.No wind16%29.99 "Hg10 mi
9:15 AM70 °FSunny.No wind15%29.99 "Hg7 mi
8:55 AM66 °FSunny.3 mph21%29.99 "Hg10 mi
8:35 AM64 °FSunny.6 mph24%29.99 "Hg10 mi
8:15 AM63 °FSunny.7 mph27%30.00 "Hg10 mi
7:55 AM61 °FSunny.7 mph29%30.00 "Hg10 mi
7:35 AM57 °FSunny.7 mph33%30.00 "Hg10 mi
7:15 AM55 °FSunny.5 mph38%29.99 "Hg10 mi
6:55 AM54 °FClear.7 mph41%29.98 "Hg10 mi
6:35 AM52 °FClear.7 mph44%29.98 "Hg10 mi
6:15 AM54 °FClear.7 mph41%29.97 "Hg10 mi
5:55 AM52 °FClear.7 mph44%29.96 "Hg10 mi
5:35 AM55 °FClear.7 mph41%29.96 "Hg10 mi
5:15 AM54 °FClear.6 mph44%29.96 "Hg10 mi
4:55 AM54 °FClear.7 mph44%29.96 "Hg10 mi
4:35 AM52 °FClear.7 mph50%29.96 "Hg10 mi
4:15 AM55 °FClear.6 mph44%29.96 "Hg10 mi
3:55 AM55 °FClear.7 mph44%29.96 "Hg10 mi
3:35 AM55 °FClear.6 mph44%29.96 "Hg10 mi
3:15 AM55 °FClear.6 mph47%29.97 "Hg10 mi
2:55 AM57 °FClear.5 mph44%29.98 "Hg10 mi
2:35 AM57 °FClear.6 mph44%29.98 "Hg10 mi
2:15 AM57 °FClear.7 mph41%29.98 "Hg10 mi
1:55 AM57 °FClear.8 mph41%29.98 "Hg10 mi
1:35 AM59 °FClear.8 mph36%29.98 "Hg10 mi
1:15 AM59 °FClear.12 mph36%29.98 "Hg10 mi
12:55 AM57 °FClear.9 mph39%29.99 "Hg10 mi
12:35 AM57 °FClear.5 mph39%29.99 "Hg10 mi
12:15 AM55 °FClear.8 mph38%29.99 "Hg10 mi
11:55 PM
Sat, Apr 18
57 °FClear.9 mph36%29.99 "Hg10 mi
11:35 PM57 °FClear.6 mph33%29.99 "Hg10 mi
11:15 PM57 °FClear.5 mph36%29.99 "Hg10 mi
10:55 PM61 °FClear.No wind34%29.99 "Hg10 mi
10:35 PM61 °FClear.6 mph31%29.99 "Hg10 mi
10:15 PM61 °FClear.6 mph31%29.99 "Hg10 mi
9:55 PM63 °FClear.5 mph27%29.99 "Hg10 mi
9:35 PM64 °FClear.No wind26%29.99 "Hg10 mi
9:15 PM64 °FClear.No wind24%29.98 "Hg10 mi
8:15 PM70 °FSunny.6 mph18%29.96 "Hg10 mi
7:55 PM70 °FSunny.6 mph20%29.95 "Hg10 mi
7:35 PM72 °FSunny.12 mph17%29.94 "Hg10 mi
7:15 PM73 °FSunny.14 mph14%29.94 "Hg10 mi
6:55 PM75 °FSunny.14 mph11%29.93 "Hg10 mi
6:15 PM79 °FSunny.16 mph10%29.92 "Hg10 mi
5:55 PM81 °FSunny.18 mph10%29.92 "Hg10 mi
5:35 PM82 °FSunny.13 mph9%29.92 "Hg10 mi
5:15 PM82 °FSunny.13 mph9%29.91 "Hg10 mi
4:55 PM82 °FSunny.No wind8%29.92 "Hg10 mi
4:15 PM82 °FSunny.6 mph8%29.93 "Hg10 mi
3:55 PM82 °FSunny.5 mph8%29.94 "Hg10 mi
3:35 PM82 °FSunny.3 mph8%29.95 "Hg10 mi
3:15 PM82 °FSunny.3 mph7%29.95 "Hg10 mi
2:55 PM81 °FSunny.No wind9%29.96 "Hg10 mi
2:15 PM81 °FSunny.7 mph7%29.98 "Hg10 mi
1:55 PM81 °FSunny.3 mph8%29.99 "Hg10 mi
1:35 PM81 °FSunny.6 mph9%30.00 "Hg10 mi
1:15 PM81 °FSunny.3 mph9%30.00 "Hg10 mi
12:55 PM79 °FSunny.No wind10%30.01 "Hg10 mi
12:15 PM79 °FSunny.3 mph10%30.03 "Hg10 mi
11:55 AM75 °FSunny.3 mph11%30.04 "Hg10 mi
11:35 AM75 °FSunny.8 mph11%30.05 "Hg10 mi
11:15 AM75 °FSunny.9 mph11%30.05 "Hg10 mi
Weather by CustomWeather, © 2015

See weather overviewHow to use our weather pages